Regional Weather Roundup
Issued by NWS

Home | Current Version | Previous Version | Text Only | Print | Product List | Glossary Off
Versions: 1 2 3 4 5 6 7 8 9 10 11 12 13 14 15 16 17 18 19 20 21 22 23 24 25 26 27 28 29 30 31 32 33 34 35 36 37 38 39 40 41 42 43 44 45 46 47 48 49 50

000
ASUS43 KOAX 241510
RWRNE

WEATHER ROUNDUP FOR NEBRASKA
NATIONAL WEATHER SERVICE OMAHA NE
1000 AM CDT TUE APR 24 2018

NOTES: SATELLITE DATA IS BEING USED TO AUGMENT CLOUD COVER ABOVE
       12000 FEET.
       "FAIR" INDICATES FEW OR NO CLOUDS BELOW 12,000 FEET WITH NO
       SIGNIFICANT WEATHER AND/OR OBSTRUCTIONS TO VISIBILITY.


NEZ001>004-019>022-054>056-241600-
NEBRASKA PANHANDLE

CITY           SKY/WX    TMP DP  RH WIND       PRES   REMARKS
SCOTTSBLUFF    CLOUDY    39  32  76 N18       30.44R WCI  30
ALLIANCE       CLOUDY    33  32  96 N26G33    30.40R WCI  20
CHADRON        CLOUDY    36  29  75 N18G31    30.46R WCI  26
GORDON         CLOUDY    36  33  90 N23G32    30.39R WCI  24
KIMBALL        CLOUDY    35  31  85 N22       30.40R WCI  24
SIDNEY         MIX PCPN  36  33  89 N29G36    30.37F WCI  23
$$

NEZ057>060-069>072-079>082-241600-
SOUTHWEST NEBRASKA

CITY           SKY/WX    TMP DP  RH WIND       PRES   REMARKS
NORTH PLATTE   LGT RAIN  41  37  86 N14G23    30.32R
IMPERIAL       LGT RAIN  39  37  92 NW23G33   30.35R WCI  28
LEXINGTON      RAIN      44  40  88 N18       30.27S
MCCOOK         RAIN      42  40  92 NW20G29   30.31R FOG
OGALLALA       LGT SNOW  39  37  92 N24G30    30.34S WCI  28
$$

NEZ005>010-023>029-035>040-094-241600-
NORTH CENTRAL NEBRASKA

CITY           SKY/WX    TMP DP  RH WIND       PRES   REMARKS
VALENTINE      CLOUDY    39  36  89 NW23G38   30.30R FOG     WCI  28
AINSWORTH      CLOUDY    39  38  97 NW24G31   30.26R FOG     WCI  29
BROKEN BOW     CLOUDY    42  38  85 NW23G33   30.24R
O`NEILL        RAIN      46  44  92 W17G23    30.22S
ORD            RAIN      43  41  93 NW18G30   30.22F
THEDFORD       LGT RAIN  39  36  89 NW26      30.31R WCI  28
$$

NEZ041-046>049-061>064-073>077-083>087-241600-
SOUTH CENTRAL NEBRASKA

CITY           SKY/WX    TMP DP  RH WIND       PRES   REMARKS
GRAND ISLAND   CLOUDY    49  41  74 N17G28    30.22R
AURORA         CLOUDY    53  45  72 N24       30.20R
HASTINGS       CLOUDY    51  44  77 N20       30.21R
HEBRON         CLOUDY    57  40  52 NW9       30.17R
HOLDREGE       LGT RAIN  44  43  95 NW13G21   30.24R
KEARNEY        LGT RAIN  46  42  86 N17G26    30.24R
YORK             N/A     59  39  47 NW17      30.18S
$$

NEZ011>018-030>034-042>045-241600-
NORTHEAST NEBRASKA

CITY           SKY/WX    TMP DP  RH WIND       PRES   REMARKS
NORFOLK        CLOUDY    53  45  74 NW16      30.18R
ALBION         CLOUDY    51  44  78 NW16G22   30.20S
BLAIR          MOSUNNY   61  40  45 CALM      30.15F
COLUMBUS       MOSUNNY   59  36  42 W12       30.17F
FREMONT        PTSUNNY   60  42  50 CALM      30.15F
TEKAMAH        PTSUNNY   59  41  51 CALM      30.15F
WAYNE          MOSUNNY   58  41  52 W7        30.16F
$$

NEZ050>053-065>068-078-088>093-241600-
SOUTHEAST NEBRASKA

CITY           SKY/WX    TMP DP  RH WIND       PRES   REMARKS
LINCOLN        MOSUNNY   56  38  50 E5        30.16F
OMAHA EPPLEY   CLOUDY    59  40  49 CALM      30.16S
BEATRICE       MOSUNNY   62  38  41 CALM      30.15F
FALLS CITY     CLOUDY    62  34  35 CALM      30.15R
NEBRASKA CITY  MOSUNNY   62  36  37 CALM      30.16S
PLATTSMOUTH    PTSUNNY   62  35  37 CALM      30.16S
$$

NEZ044-045-051>053-067-241600-
OMAHA AREA

CITY           SKY/WX    TMP DP  RH WIND       PRES   REMARKS
OMAHA EPPLEY   CLOUDY    59  40  49 CALM      30.16S
BLAIR          MOSUNNY   61  40  45 CALM      30.15F
FREMONT        PTSUNNY   60  42  50 CALM      30.15F
MILLARD        PTSUNNY   62  42  48 CALM      30.16S
OFFUTT AFB     MOSUNNY   59  38  46 CALM      30.15S
PLATTSMOUTH    PTSUNNY   62  35  37 CALM      30.16S
WAHOO          FAIR      63  33  32 S5        30.15F
$$




USA.gov is the U.S. government's official web portal to all federal, state and local government web resources and services.